Wind_Speed
3 3 2 3 5 6 8 9 10 11 13 13 14 15 16 17 18 19 19 20 23 23 22 23 24 25 27 28 29 30 31 31 31 31 30 29 29 28 27 26 25 24 24 25 26 26 25 24 23
2 2 1 1 2 1 3 6 7 7 9 10 12 13 14 14 14 14 14 15 17 19 21 22 24 26 28 29 29 30 31 33 33 33 33 32 32 31 31 30 29 28 28 28 29 29 30 29 28
6 5 5 3 2 1 0 1 2 5 6 7 8 8 9 9 10 11 12 13 15 18 20 22 24 26 28 29 30 31 32 33 34 34 35 34 34 34 33 33 32 32 31 31 31 32 33 33 32
9 9 8 7 7 6 5 4 5 5 5 6 6 7 9 10 11 13 14 15 17 18 20 23 25 27 29 30 31 32 33 34 35 36 36 37 37 36 36 36 35 35 34 34 34 34 35 35 35
11 11 8 9 9 9 9 8 7 7 6 7 7 8 10 11 14 16 18 19 21 23 24 26 28 30 32 34 35 35 36 37 38 39 39 39 40 39 39 39 38 38 38 37 37 37 36 36 37
10 8 7 7 6 6 6 6 5 6 7 8 9 10 11 12 14 16 18 20 22 24 26 28 30 32 34 36 38 39 40 41 42 43 43 43 43 43 42 42 42 41 41 41 40 40 39 39 39
8 6 7 6 6 7 7 6 6 6 6 7 8 9 11 12 14 16 18 19 21 23 26 28 31 33 35 37 38 39 40 41 42 43 45 47 48 48 48 47 46 45 45 44 43 43 43 43 42
7 7 7 7 7 7 7 6 7 9 9 11 12 13 14 16 17 18 20 21 23 25 28 30 33 35 38 40 42 43 44 44 44 43 43 45 47 49 51 51 50 50 49 48 47 47 46 46 46
9 8 7 7 7 6 6 6 7 9 11 12 14 14 16 17 19 21 23 25 27 29 32 34 35 37 39 41 43 45 47 48 48 48 48 47 47 47 49 50 51 51 51 51 51 50 50 49 48
9 8 8 8 7 6 6 6 8 9 10 12 14 16 18 20 22 25 27 30 32 35 37 40 42 43 45 46 48 49 50 51 51 51 51 51 51 50 50 50 50 51 51 51 51 51 51 51 51
9 8 8 8 9 8 8 8 8 8 9 12 15 17 20 23 26 29 32 35 38 41 43 46 48 50 52 53 54 55 55 56 56 56 56 55 54 53 53 54 53 52 51 51 51 51 51 52 52
9 9 9 9 9 8 8 8 9 10 13 15 18 21 25 28 32 35 39 42 46 49 52 55 57 58 60 61 62 62 62 62 62 62 61 61 60 59 57 57 57 56 55 53 52 52 53 53 52
8 8 7 7 6 7 9 11 12 14 16 19 22 25 29 33 37 41 45 49 53 57 61 64 65 67 68 69 70 70 70 69 69 69 68 67 65 64 63 61 60 60 59 58 57 56 55 55 54
6 5 5 5 6 8 10 13 14 16 18 21 25 29 35 40 45 49 53 57 61 64 67 69 72 73 75 76 77 78 78 76 75 74 74 74 72 70 67 66 66 64 63 62 62 61 60 59 57
5 5 6 8 9 10 11 13 16 18 22 27 32 38 43 48 53 57 61 65 68 71 73 76 78 80 81 82 82 83 83 82 81 79 78 78 77 76 74 71 70 69 68 67 66 65 65 63 61
5 7 9 10 11 13 14 16 20 24 29 35 40 46 51 56 60 64 68 72 75 78 80 83 84 85 86 86 86 85 84 83 81 80 80 80 80 80 79 77 75 73 72 71 70 69 68 67 66
7 10 11 13 15 17 20 23 27 32 37 42 47 52 57 62 66 70 74 78 81 83 85 87 89 90 89 87 84 82 80 79 78 76 76 79 82 82 82 81 80 78 77 75 74 73 71 70 69
11 13 15 17 20 22 26 30 33 36 41 46 52 57 62 67 71 75 78 81 84 86 88 90 90 87 81 75 72 69 68 65 63 64 65 67 73 82 86 85 83 82 81 80 79 77 75 73 71
15 17 18 20 23 27 30 33 36 39 45 49 54 60 66 71 74 78 80 83 85 86 87 87 82 72 66 62 60 58 54 50 48 49 51 53 57 65 78 89 89 87 85 84 82 81 79 76 74
17 19 20 23 26 31 34 36 37 43 47 52 58 64 69 74 77 79 81 83 85 85 84 79 67 60 58 57 56 54 51 48 47 47 48 50 50 52 59 73 87 92 90 88 86 85 83 80 78
18 20 23 26 30 32 37 37 40 46 51 57 63 68 73 76 79 80 82 83 83 80 75 64 56 55 55 55 54 52 51 50 49 48 47 48 49 50 50 54 69 85 94 94 91 89 87 84 81
19 23 26 29 32 33 37 42 44 50 56 62 68 72 76 78 80 81 82 81 78 73 65 56 54 55 56 57 56 55 53 52 50 48 46 45 45 46 47 47 51 65 82 93 96 94 92 89 85
22 25 28 30 32 34 39 45 50 55 61 67 72 75 78 79 81 82 80 77 72 66 58 54 55 58 60 60 59 57 56 54 52 50 47 44 43 43 43 43 43 47 59 75 90 96 95 93 90
23 27 30 32 36 38 43 49 54 60 66 71 75 77 79 80 82 80 76 71 66 60 56 56 59 63 64 65 63 61 58 55 53 51 48 45 42 40 39 39 38 38 42 51 65 81 91 94 92
24 28 33 37 41 43 47 52 59 64 69 73 77 78 79 81 80 76 72 66 61 57 58 60 64 66 67 65 63 60 58 55 53 51 48 46 42 39 37 36 35 35 34 37 43 55 69 83 90
24 27 31 37 42 46 50 55 62 67 71 76 77 78 79 80 76 72 67 63 60 60 62 65 66 65 63 59 56 55 53 52 51 50 48 46 43 39 36 34 33 33 32 32 33 38 48 61 74
26 31 34 39 45 49 53 58 65 70 74 76 76 77 79 77 72 68 65 62 62 64 66 65 62 59 56 54 52 52 51 50 49 48 47 46 44 42 38 34 32 31 31 31 31 32 36 43 53
28 34 37 41 46 52 57 62 67 72 75 76 76 77 77 74 69 66 65 65 66 66 64 60 56 53 52 51 51 51 51 50 48 47 45 44 43 43 41 37 33 32 31 31 31 31 32 34 38
31 35 39 42 46 53 60 66 70 74 76 75 76 76 74 70 67 66 66 67 67 64 59 55 53 51 51 51 52 52 51 50 49 47 46 44 42 41 41 40 37 34 32 32 32 32 32 33 34
32 35 39 44 49 54 61 69 73 75 75 75 75 74 70 67 66 66 67 67 63 59 56 53 52 51 52 53 54 54 54 52 50 47 45 43 41 39 39 41 41 39 36 34 34 34 35 35 35
Wind_Direction
269 242 232 247 257 262 267 261 255 259 263 266 269 271 273 273 272 273 269 264 261 260 262 266 266 266 267 268 268 267 265 265 265 265 265 265 265 265 266 266 264 261 259 254 249 245 242 239 239
94 85 54 307 259 290 270 265 260 272 275 276 275 274 275 278 278 275 271 266 264 262 263 264 264 263 264 265 266 267 267 267 267 266 264 264 264 264 265 264 262 260 257 255 250 245 242 240 239
81 82 71 77 100 137 231 269 291 302 306 307 307 309 303 299 296 291 285 278 274 271 270 270 270 269 268 268 267 266 266 266 267 266 264 263 262 262 261 261 259 257 255 254 251 247 243 241 239
72 72 65 71 72 78 71 59 44 31 17 3 348 335 326 317 308 303 298 293 289 284 281 278 277 276 275 273 272 270 269 268 268 267 266 265 264 262 261 259 257 256 254 252 251 249 245 242 240
70 70 70 67 69 65 58 49 37 25 10 354 339 326 318 311 304 300 299 297 295 292 288 286 284 282 279 277 275 272 270 269 269 268 267 266 265 263 261 259 257 256 254 252 251 249 246 243 241
71 66 61 58 54 49 42 36 25 7 350 339 332 324 317 312 307 303 300 298 297 296 295 293 291 289 286 283 279 276 273 270 269 268 267 266 264 262 260 259 258 257 256 253 251 250 247 244 242
72 60 57 51 49 44 38 26 17 9 1 347 342 335 330 324 319 315 311 308 305 302 299 297 295 293 291 288 285 282 278 275 271 268 266 265 264 262 260 258 257 256 256 254 252 250 249 246 243
68 64 64 58 57 54 43 28 14 6 2 359 353 346 340 332 326 322 317 312 308 303 299 297 294 292 290 288 286 284 282 279 276 273 269 266 264 263 262 259 257 255 254 253 251 250 249 248 246
64 63 64 65 64 58 42 26 15 7 3 359 354 347 340 332 326 321 316 312 308 304 301 298 294 292 290 288 287 285 283 281 278 276 273 269 266 263 262 261 258 255 253 251 250 249 248 247 247
54 58 66 75 75 67 49 36 22 9 359 350 344 338 332 327 322 318 315 311 308 305 302 299 297 294 292 289 287 285 283 281 279 277 274 271 268 265 262 259 258 256 254 251 249 249 249 248 246
59 65 69 71 70 65 56 42 25 6 349 342 337 331 327 324 321 318 315 312 309 306 304 301 298 295 292 290 287 285 282 280 278 276 274 272 270 267 264 260 257 255 254 252 250 247 247 247 246
70 73 71 67 63 55 41 25 9 356 347 343 337 332 328 325 321 318 315 312 309 307 304 302 299 297 294 291 288 286 283 281 278 276 273 271 270 268 265 262 258 255 253 251 250 249 247 246 244
79 77 71 60 41 25 14 4 354 347 342 335 329 324 321 318 315 313 311 310 308 306 304 303 301 299 297 295 292 289 286 283 280 277 274 272 269 267 264 262 259 256 253 250 248 248 248 247 245
74 62 41 21 3 354 350 343 338 333 328 323 320 318 317 316 315 313 312 311 309 307 305 303 302 300 298 296 295 292 290 286 282 278 275 272 269 266 263 260 257 254 252 250 248 247 246 246 247
42 10 353 345 338 334 332 327 324 323 321 320 319 318 316 315 314 313 311 309 307 306 305 304 303 302 300 297 295 292 290 287 284 279 275 270 267 265 262 259 256 253 251 249 247 246 245 244 244
359 341 335 332 327 325 323 322 321 320 319 318 317 315 314 314 313 311 310 309 308 308 307 306 304 302 300 297 294 291 288 285 282 277 273 269 265 262 260 258 255 253 251 248 246 245 244 244 243
334 328 327 325 323 323 323 322 322 320 318 317 315 314 314 313 312 312 312 312 311 310 309 308 306 303 300 298 296 295 293 290 287 282 275 268 263 259 257 255 253 252 250 248 246 245 243 243 242
333 333 332 329 327 326 325 323 322 320 318 317 316 316 315 314 314 315 315 314 314 313 312 309 306 303 302 301 301 300 299 297 294 291 285 276 266 258 254 252 250 249 248 248 247 245 243 242 242
332 334 335 332 329 327 325 324 324 322 319 318 317 317 316 316 317 317 317 317 316 315 312 308 307 307 307 307 306 304 301 299 297 295 292 288 280 268 257 250 248 247 246 245 245 244 243 241 240
329 328 328 327 327 327 324 324 325 322 320 320 320 320 319 319 319 319 318 318 316 313 310 308 309 309 311 311 309 306 302 299 298 296 295 293 290 283 270 257 249 245 244 243 242 242 241 240 239
322 323 326 328 328 327 321 320 324 322 323 322 322 321 321 320 320 320 320 319 316 313 311 310 310 313 314 314 312 307 303 300 300 299 298 297 296 292 288 273 256 247 243 241 240 240 240 238 237
325 325 326 326 325 326 322 320 324 325 325 325 325 324 323 323 323 322 321 320 317 315 313 312 313 315 316 315 312 308 302 298 297 297 297 297 296 295 291 287 274 257 246 241 239 238 238 238 236
324 323 323 324 324 324 323 325 327 327 327 327 327 326 326 325 324 323 323 321 319 317 315 314 315 315 315 314 312 309 304 299 296 294 295 295 295 294 292 289 283 271 257 246 240 236 236 236 236
323 322 322 324 323 327 328 329 328 329 329 329 329 328 327 326 326 325 324 322 321 319 317 316 316 315 315 313 310 307 304 300 296 292 291 292 293 293 291 290 285 277 267 256 247 240 236 235 235
325 325 325 325 326 329 329 331 330 331 332 332 331 329 328 328 328 326 325 324 323 321 319 317 316 316 315 314 312 309 306 301 297 293 288 287 287 288 287 286 284 278 270 262 252 245 241 237 235
324 323 324 326 326 327 331 334 333 334 334 333 331 330 330 330 329 328 327 326 324 322 320 319 319 319 319 320 319 318 315 310 303 297 291 285 282 281 281 280 279 275 269 263 254 245 241 239 238
322 323 326 327 327 330 333 334 334 336 335 333 333 332 332 331 330 329 327 326 325 324 323 324 324 325 326 326 325 324 322 319 314 307 298 290 282 278 275 274 273 270 266 261 254 245 237 235 237
324 326 328 331 332 332 332 335 337 337 335 334 334 335 334 332 331 330 328 327 327 327 328 329 330 330 331 330 330 328 326 323 319 314 308 299 288 278 272 267 266 264 260 256 252 245 237 231 230
328 329 330 331 332 335 335 336 337 337 336 335 336 336 335 333 332 330 329 329 330 331 333 333 333 333 334 333 332 330 328 325 323 318 313 306 296 284 273 264 259 257 254 249 246 242 238 233 230
329 330 331 332 334 335 336 336 338 338 337 337 338 338 336 334 333 331 331 331 333 335 336 336 336 336 335 334 333 332 330 327 324 321 316 310 302 292 279 266 257 252 249 245 241 239 237 235 233
Height
5862 5862 5863 5865 5866 5865 5865 5866 5866 5867 5867 5867 5867 5867 5867 5867 5868 5870 5868 5866 5865 5864 5863 5863 5862 5862 5861 5861 5860 5859 5858 5857 5857 5856 5856 5855 5854 5853 5853 5852 5852 5852 5852 5852 5852 5852 5853 5853 5854
5861 5862 5864 5865 5864 5865 5865 5865 5865 5865 5865 5865 5865 5865 5865 5864 5864 5864 5863 5862 5861 5860 5859 5858 5857 5856 5856 5855 5854 5854 5853 5852 5851 5851 5850 5849 5848 5847 5847 5846 5846 5845 5846 5846 5846 5847 5847 5848 5849
5862 5863 5865 5864 5863 5864 5864 5864 5864 5864 5864 5864 5864 5864 5864 5863 5862 5861 5860 5860 5858 5857 5856 5855 5854 5853 5852 5850 5849 5848 5847 5846 5845 5844 5843 5842 5841 5840 5840 5839 5839 5839 5839 5839 5840 5840 5841 5842 5843
5864 5865 5866 5865 5864 5864 5864 5864 5864 5865 5865 5864 5864 5863 5862 5861 5861 5860 5858 5857 5856 5854 5853 5852 5851 5849 5848 5846 5844 5843 5842 5841 5839 5838 5837 5836 5834 5833 5833 5832 5832 5832 5832 5832 5833 5833 5834 5835 5836
5865 5866 5866 5865 5865 5866 5865 5865 5865 5865 5865 5864 5864 5863 5862 5861 5860 5858 5857 5855 5853 5851 5849 5847 5846 5844 5842 5841 5839 5837 5835 5833 5831 5830 5829 5828 5827 5826 5825 5825 5824 5824 5824 5825 5825 5826 5826 5827 5828
5866 5867 5866 5866 5866 5866 5865 5865 5864 5864 5864 5863 5863 5863 5861 5860 5858 5856 5853 5851 5849 5847 5845 5842 5840 5838 5836 5833 5831 5829 5827 5825 5823 5822 5820 5819 5818 5817 5816 5815 5815 5815 5816 5816 5817 5817 5818 5819 5820
5868 5867 5866 5866 5866 5865 5865 5864 5863 5863 5863 5862 5862 5860 5858 5856 5855 5853 5850 5848 5846 5843 5841 5838 5835 5832 5829 5826 5823 5820 5818 5815 5813 5811 5810 5808 5807 5806 5805 5805 5805 5805 5806 5806 5807 5808 5809 5810 5812
5868 5869 5867 5867 5866 5866 5865 5864 5863 5862 5861 5861 5860 5858 5856 5855 5852 5850 5847 5844 5841 5838 5835 5832 5829 5825 5822 5818 5815 5812 5809 5806 5803 5801 5799 5797 5796 5795 5794 5794 5794 5794 5795 5795 5796 5798 5799 5800 5802
5870 5871 5869 5868 5868 5866 5865 5864 5863 5861 5860 5859 5858 5856 5854 5852 5849 5846 5843 5840 5836 5833 5829 5825 5822 5818 5814 5810 5806 5802 5799 5795 5793 5790 5789 5787 5785 5783 5782 5781 5782 5782 5782 5783 5785 5786 5788 5789 5791
5871 5870 5870 5869 5868 5867 5866 5865 5864 5862 5861 5859 5858 5855 5853 5850 5847 5843 5839 5836 5831 5827 5823 5818 5813 5809 5804 5800 5795 5791 5787 5784 5780 5778 5775 5774 5773 5772 5770 5769 5769 5769 5770 5771 5772 5774 5776 5778 5780
5871 5870 5870 5869 5868 5868 5867 5866 5865 5863 5861 5859 5856 5853 5850 5847 5843 5839 5835 5831 5826 5821 5816 5810 5804 5799 5793 5788 5783 5779 5774 5770 5767 5764 5762 5760 5758 5758 5758 5757 5757 5757 5758 5759 5760 5761 5762 5764 5767
5872 5871 5870 5870 5869 5869 5867 5865 5864 5862 5860 5857 5853 5850 5847 5843 5838 5834 5829 5823 5818 5812 5806 5800 5793 5787 5781 5775 5769 5764 5760 5756 5752 5749 5746 5744 5743 5742 5741 5742 5743 5743 5744 5745 5746 5748 5749 5751 5753
5873 5872 5871 5870 5869 5868 5867 5865 5863 5860 5857 5854 5851 5847 5843 5838 5833 5827 5821 5815 5809 5802 5795 5787 5779 5772 5765 5758 5751 5746 5741 5737 5734 5731 5728 5726 5725 5724 5724 5724 5725 5727 5729 5730 5732 5733 5735 5737 5740
5874 5874 5873 5871 5870 5868 5866 5864 5862 5858 5855 5851 5847 5842 5837 5831 5825 5818 5811 5804 5797 5789 5781 5772 5764 5756 5748 5740 5732 5725 5719 5714 5711 5708 5707 5705 5705 5705 5705 5705 5706 5708 5711 5713 5715 5718 5720 5723 5726
5875 5875 5874 5872 5871 5868 5866 5864 5860 5856 5852 5848 5842 5836 5830 5823 5816 5809 5801 5792 5784 5774 5765 5756 5747 5737 5728 5719 5710 5702 5695 5690 5685 5682 5680 5680 5680 5682 5683 5684 5686 5688 5691 5694 5697 5700 5703 5707 5711
5876 5875 5873 5871 5869 5867 5866 5862 5858 5853 5848 5842 5836 5829 5822 5815 5807 5798 5788 5778 5768 5758 5748 5737 5727 5717 5706 5695 5685 5677 5669 5663 5658 5654 5653 5652 5653 5655 5657 5660 5663 5666 5669 5673 5677 5681 5685 5690 5694
5876 5874 5871 5869 5867 5864 5862 5859 5854 5848 5843 5836 5829 5821 5813 5804 5794 5784 5773 5763 5752 5740 5728 5717 5705 5694 5682 5670 5659 5649 5641 5634 5629 5625 5624 5624 5625 5626 5629 5633 5637 5642 5647 5651 5655 5660 5665 5671 5676
5874 5872 5869 5867 5864 5862 5858 5854 5849 5843 5836 5828 5820 5812 5802 5792 5781 5770 5758 5746 5733 5720 5707 5695 5682 5670 5659 5649 5639 5629 5620 5612 5605 5599 5595 5594 5595 5597 5600 5604 5610 5615 5621 5627 5632 5638 5644 5651 5656
5872 5870 5868 5865 5861 5858 5854 5849 5843 5836 5829 5821 5812 5802 5791 5779 5768 5756 5743 5729 5716 5702 5688 5674 5660 5648 5639 5631 5623 5614 5606 5598 5591 5584 5577 5573 5570 5568 5570 5574 5580 5586 5594 5601 5607 5614 5622 5629 5636
5870 5868 5865 5862 5858 5854 5848 5843 5837 5830 5822 5813 5802 5791 5779 5767 5754 5741 5727 5714 5700 5685 5670 5655 5643 5633 5624 5616 5607 5599 5592 5585 5578 5571 5564 5557 5552 5547 5544 5544 5549 5556 5565 5573 5581 5589 5598 5607 5614
5868 5865 5861 5858 5854 5849 5842 5837 5832 5823 5814 5804 5793 5781 5769 5756 5742 5728 5714 5699 5683 5667 5652 5639 5630 5621 5612 5603 5594 5586 5578 5570 5563 5556 5549 5541 5534 5528 5523 5520 5520 5525 5534 5544 5554 5563 5573 5583 5592
5864 5861 5857 5854 5849 5844 5838 5830 5825 5815 5805 5795 5783 5770 5756 5742 5727 5713 5699 5683 5666 5650 5637 5626 5617 5609 5599 5589 5580 5571 5563 5556 5548 5541 5535 5528 5520 5513 5506 5502 5498 5498 5503 5513 5524 5535 5547 5558 5570
5860 5857 5853 5849 5844 5839 5832 5824 5817 5807 5797 5785 5772 5758 5744 5729 5714 5699 5684 5667 5651 5636 5625 5615 5605 5595 5585 5575 5565 5556 5547 5538 5531 5525 5519 5513 5507 5500 5493 5487 5483 5480 5480 5484 5494 5506 5519 5532 5545
5857 5853 5848 5843 5838 5833 5825 5818 5809 5800 5788 5775 5760 5745 5731 5716 5701 5685 5669 5652 5638 5625 5614 5604 5593 5582 5571 5559 5548 5539 5530 5521 5514 5508 5503 5498 5493 5487 5481 5475 5470 5467 5465 5466 5471 5481 5493 5506 5520
5854 5850 5844 5837 5831 5827 5820 5812 5803 5791 5777 5763 5749 5734 5719 5703 5687 5671 5655 5640 5627 5615 5604 5593 5580 5568 5556 5543 5531 5521 5512 5503 5496 5490 5486 5482 5479 5475 5470 5464 5460 5456 5455 5455 5457 5463 5472 5483 5496
5851 5847 5842 5835 5827 5821 5813 5804 5794 5780 5766 5752 5738 5722 5706 5690 5673 5657 5643 5629 5616 5604 5592 5580 5566 5553 5540 5528 5517 5506 5496 5487 5479 5473 5468 5464 5462 5460 5458 5454 5450 5447 5445 5446 5447 5450 5456 5464 5475
5847 5842 5837 5831 5821 5813 5805 5797 5784 5771 5757 5742 5727 5711 5695 5678 5661 5646 5632 5619 5606 5593 5579 5566 5553 5540 5528 5517 5506 5495 5485 5475 5466 5458 5452 5448 5445 5444 5443 5442 5440 5438 5437 5437 5438 5441 5445 5451 5459
5844 5838 5833 5825 5817 5808 5798 5788 5776 5761 5747 5732 5716 5700 5683 5667 5651 5636 5622 5608 5594 5580 5567 5554 5542 5530 5519 5508 5496 5485 5475 5464 5455 5446 5438 5433 5429 5427 5427 5428 5428 5428 5427 5428 5430 5432 5436 5441 5447
5840 5834 5827 5820 5812 5802 5791 5783 5769 5753 5737 5722 5706 5690 5673 5657 5641 5627 5612 5598 5584 5570 5557 5545 5534 5523 5511 5500 5489 5477 5466 5455 5444 5435 5426 5419 5414 5412 5411 5413 5415 5416 5417 5419 5421 5424 5427 5432 5437
5836 5829 5822 5815 5806 5795 5785 5775 5759 5744 5727 5711 5695 5679 5663 5648 5633 5618 5604 5589 5575 5562 5550 5539 5527 5515 5504 5492 5480 5468 5456 5444 5434 5424 5415 5407 5401 5397 5396 5397 5399 5402 5405 5408 5411 5414 5418 5422 5427